Regional Weather Roundup
Issued by NWS

Home | Current Version | Previous Version | Graphics & Text | Print | Product List | Glossary On
Versions: 1 2 3 4 5 6 7 8 9 10 11 12 13 14 15 16 17 18 19 20 21 22 23 24 25 26 27 28 29 30 31 32 33 34 35 36 37 38 39 40 41 42 43 44 45 46 47 48 49 50
000
ASUS43 KDTX 190410
RWRMI
MICHIGAN HOURLY REGIONAL WEATHER ROUNDUP
NATIONAL WEATHER SERVICE DETROIT/PONTIAC MI
1200 AM EDT SAT AUG 19 2017

NOTE: "FAIR" INDICATES FEW OR NO CLOUDS BELOW 12,000 FEET WITH NO
SIGNIFICANT WEATHER AND/OR OBSTRUCTION TO VISIBILITY.

MIZ047>049-052>055-059>063-066>070-074>076-081>083-190500-
SOUTHEAST LOWER MICHIGAN

CITY           SKY/WX    TMP DP  RH WIND       PRES   REMARKS
ADRIAN         MOCLDY    65  61  87 CALM      29.90S
ALMA           FAIR      62  59  92 S6        29.86S
ANN ARBOR      FAIR      58  58 100 CALM      29.88R
BAD AXE        CLOUDY    65  60  85 W6        29.84S
CARO           FAIR      60  57  91 CALM      29.84S
DETROIT CITY   FAIR      70  58  65 W7        29.87R
DETROIT        FAIR      67  60  78 W7        29.89R
FLINT          CLOUDY    65  59  81 SW5       29.86S
GROSSE ILE     FAIR      67  60  77 W3        29.87R
HILLSDALE      CLOUDY    61  59  94 CALM      29.90S
HOWELL         FAIR      63  59  88 SW3       29.88S

CITY           SKY/WX    TMP DP  RH WIND       PRES   REMARKS
JACKSON        CLOUDY    65  59  81 SW3       29.89S
LAMBERTVILLE   FAIR      64  62  91 CALM      29.89S
LANSING        FAIR      63  59  87 SW8       29.88S
LAPEER         CLOUDY    67  59  75 N5        29.86S
MASON          FAIR      63  60  91 CALM      29.89R
MONROE         FAIR      63  61  93 CALM      29.88R
MT. CLEMENS    CLOUDY    70  60  69 W9        29.85R
PONTIAC        CLOUDY    68  59  73 W6        29.86S
PORT HOPE        N/A     66  59  78 W6        29.81R
PORT HURON     CLOUDY    68  61  77 CALM      29.86R
TRI CITIES     FAIR      64  62  93 SW6       29.85S
MIDLAND        FAIR      63  60  91 SW3       29.84S
TROY           CLOUDY    70  59  67 SW3       29.88S
SAGINAW HB     FAIR      63  59  88 SW3       29.84S
$$
MIZ043>046-050>051-056>058-064>065-071>073-077>080-190500-
SOUTHWEST LOWER MICHIGAN

CITY           SKY/WX    TMP DP  RH WIND       PRES   REMARKS
BATTLE CREEK   MOCLDY    64  61  90 S3        29.90R
BENTON HARBOR  FAIR      63  60  90 CALM      29.88S
BIG RAPIDS     FAIR      61  59  91 W3        29.85S
COLDWATER      CLOUDY    64  64 100 CALM      29.91R
FREMONT        CLOUDY    63  63 100 SW3       29.86R
HOLLAND        MOCLDY    63  60  90 W3        29.88S
GRAND RAPIDS   MOCLDY    65  62  90 SW7       29.87S
IONIA          FAIR      63  60  91 SW5       29.87S
KALAMAZOO      MOCLDY    64  59  83 S5        29.89S
LUDINGTON      MOCLDY    63  59  86 CALM      29.85S
MARSHALL       CLOUDY    62  61  98 CALM      29.90R
MOUNT PLEASANT FAIR      65  61  87 CALM      29.84S
MUSKEGON       LGT RAIN  68  63  84 CALM      29.86F
SOUTH HAVEN    CLOUDY    64  63  94 CALM      29.88S
$$
MIZ016>042-190500-
NORTHERN LOWER MICHIGAN

CITY           SKY/WX    TMP DP  RH WIND       PRES   REMARKS
ALPENA         CLOUDY    63  58  83 W6        29.79S
BEAVER ISLAND  CLOUDY    63  58  86 NW6       29.81S
BELLAIRE       DRIZZLE   62  57  86 NW5       29.83R
CADILLAC       CLOUDY    62  59  89 W5        29.85S
CHARLEVOIX     CLOUDY    63  59  87 W13G18    29.85R
FRANKFORT      FAIR      61  60  96 CALM      29.85S
GAYLORD        CLOUDY    58  56  93 W7        29.82S
GRAYLING       MOCLDY    59  56  91 W6        29.84S
HARBOR SPRINGS CLOUDY    61  59  92 W5        29.80S
HOUGHTON LAKE  MOCLDY    61  58  90 NW7       29.84F
MANISTEE       CLOUDY    63  60  90 CALM      29.85R
OSCODA         CLOUDY    64  58  81 W8G16     29.80F
PELLSTON       CLOUDY    62  58  86 NW10      29.79S
ROGERS CITY    CLOUDY    62  57  82 W7        29.78S
TRAVERSE CITY  FAIR      61  58  90 SW5       29.83R
$$
MIZ007>008-015-190500-
EASTERN UPPER MICHIGAN

CITY           SKY/WX    TMP DP  RH WIND       PRES   REMARKS
KINROSS        CLOUDY    59  58  96 W8        29.76S
MACKINAC ISLAN CLOUDY    61  60  96 W12G17    29.77S
NEWBERRY       CLOUDY    58  57  97 W6        29.78S
S. S. MARIE    CLOUDY    61  60  97 W7        29.74R
MUNISING         N/A     62  61  96 NW12      29.81R
$$
MIZ004>006-011>014-085-190500-
CENTRAL UPPER MICHIGAN

CITY           SKY/WX    TMP DP  RH WIND       PRES   REMARKS
MANISTIQUE     CLOUDY    60  54  80 W3        29.81R
ESCANABA       FAIR      60  58  92 W5        29.84R
MENOMINEE      FAIR      60  57  89 CALM      29.86S
SAWYER-GWINN   FAIR      57  55  92 NW3       29.85R
$$
MIZ001>003-009>011-084-190500-
WESTERN UPPER MICHIGAN

CITY           SKY/WX    TMP DP  RH WIND       PRES   REMARKS
IRON MOUNTAIN  FAIR      57  53  86 CALM      29.85S
HOUGHTON         N/A    N/A N/A N/A MISG      29.83F
COPPER HARBOR    N/A     62  56  80 VRB5      29.81S
IRONWOOD       FAIR      59  58  96 W3        29.87F
$$

ABBREVIATIONS USED IN REMARKS
   TC - TEMPERATURE IN CELSIUS
  WCI - WIND CHILL INDEX
   HX - HEAT INDEX
  VSB - VISIBILITY




USA.gov is the U.S. government's official web portal to all federal, state and local government web resources and services.